LTB5 (KAYSERİ/SOĞANLI) TANITMALI BÖLGE

  • SEKTÖREL METEOROLOJİK DEĞERLENDİRME

  • SOĞANLI UÇULMAZ

Meteorolojik şartların belirlenen saat aralığında uçuş için uygun olmadığı değerlendirilmiştir.

  • GÜNCELLEME TARİHİ ve SAATİ :

  • 30.11.2022 - 05:57

  • GEÇERLİ TARİH ve SAATLER :

  • 30.11.2022 - 06:00 - 14:20

Büyük Harita İçin Tıklayınız

Sıcaklık
Basınç
Gün Doğum Saati
Gün Batım Saati
Bu bölümde yer alan bildirim meteorolojik veriler doğrultusunda ilgili gün ve zaman aralığında planlanan uçuşlara dair bağlayıcı niteliktedir. Kırmızı ve Sarı bayrak durumlarında kalkış uygunluğu verilmeyecektir. Yeşil bayrak durumunda nihai uçma kararı pilot ve işletme sorumluluğundadır
Kırmızı ve/veya sarı bayrağın ilan edildiği durumlarda yalnızca öğretmen pilot ile beraber yapılacak eğitim uçuşları (çift kumanda) için SHGM yetkilileri ile irtibata geçilerek eğitim uçuşları gerçekleştirilebilecektir.

METAR

LTAZ 300620Z 10004KT 070V130 0200 R11/0325N R29/0225N FG BKN001 02/02 Q1019 RMK RWY29 14003KT

TAFF

TAF LTAZ 292240Z 3000/3024 VRB02KT 3500 BR NSC TEMPO 3000/3004 0800 BCFG SCT001 BECMG 3004/3007 6000 FEW040 SCT120 BECMG 3017/3020 4200 BR NSC TEMPO 3022/3024 1000 BCFG SCT001

METAR - TAF bilgileri Aviation Weather Center'dan alınmaktadır.

AIRGRAM

Göreme Airgramı, Meteoroloji Genel Müdürlüğü'nden alınmaktadır.

Meteorolojik veriler sitede bilgilendirme amacıyla yer almaktadır.